Location: Chèvreville
(49.1099°N, 2.8495°E)
Time: 21:48:53
(UTC+00:00)

RESURS DK-1 - Visible Passes

Search period start: 05 October 2024 00:00
Search period end: 15 October 2024 00:00
Orbit: 536 x 546 km, 69.9° (Epoch: 05 October)

Date Brightness Start Highest point End Pass type
(mag) Time Alt. Az. Time Alt. Az. Time Alt. Az.
05 Oct 2.4 18:21:41 10° NNW 18:25:45 82° WSW 18:29:46 10° SSE visible
06 Oct 2.6 18:14:14 10° NW 18:18:16 71° WSW 18:22:17 10° SSE visible
07 Oct 2.9 18:06:46 10° NW 18:10:46 61° WSW 18:14:44 10° SSE visible
08 Oct 3.2 17:59:18 10° NW 18:03:14 52° WSW 18:07:09 10° S visible
09 Oct 3.6 17:51:49 10° NW 17:55:41 44° WSW 17:59:32 10° S visible
10 Oct 4.0 17:44:21 10° NW 17:48:07 38° WSW 17:51:52 10° S visible
11 Oct 4.3 17:36:52 10° NW 17:40:31 33° WSW 17:44:08 10° S visible
